[[{"header":{"parameterUnit":"m.s-1","parameterCategory":1,"la1":30.2991,"la2":30.254,"lo1":-89.0895,"lo2":-89.0444,"dy":0.0017,"dx":0.0017,"nx":28,"ny":28,"refTime":"2023-07-22T03:00:00:Z","depth":0,"parameterNumber":2,"parameterNumberName":"U-component_of_WINDS"},"data":[0,0,0,0,0,0,0,0,0,0,0,0,0,0,0,0,0,0,0,0,0,0,0,0,0,0,0,0,0,0,0,0,0,0,0,0,0,0,0,0,0,0,0,0,0,0,0,0,0,0,0,0,0,0,0,0,0,0,2.903,2.903,0,2.9059,2.9059,2.9059,2.903,2.9029,2.9027,2.9026,2.9058,2.906,2.9062,0,0,0,0,0,0,0,0,0,0,0,0,0,2.8954,2.8955,2.903,2.903,2.9031,2.9059,2.9059,2.9059,2.903,2.9029,2.9027,2.9026,2.9058,2.906,2.9062,0,0,0,0,0,0,0,0,0,0,0,0,0,2.8985,2.8956,2.903,2.9019,2.9019,2.9059,2.9059,2.9059,2.903,2.9029,2.9027,2.9025,2.9057,2.906,2.9063,2.9115,0,0,2.9071,2.9073,0,0,0,0,0,0,0,0,2.8983,2.8988,2.9021,2.902,2.9019,2.9039,2.9044,2.9078,2.9031,2.9026,2.9026,2.9024,2.9053,2.9056,2.9066,2.9117,2.9118,2.9072,2.9073,2.9075,2.9075,0,0,0,0,0,0,0,2.8981,2.8987,2.9041,2.9021,2.902,2.9014,2.9017,2.905,2.9049,2.9026,2.9024,2.9028,2.9053,2.9063,2.9066,2.9118,2.9072,2.9074,2.9076,2.9077,2.9217,2.9219,0,0,0,0,0,0,2.898,2.8985,2.904,2.9042,2.8997,2.9017,2.902,2.9034,2.9049,2.9049,2.9029,2.9026,2.9059,2.9063,2.9067,2.9132,2.9075,2.9077,2.9079,2.9215,2.9217,2.9219,0,0,0,0,0,0,2.8978,2.8985,2.9039,2.9013,2.902,2.902,2.9037,2.9036,2.9046,2.9051,2.9051,2.904,2.9058,2.9063,2.9104,2.9132,2.9079,2.9081,2.9213,2.9216,2.9218,2.9259,0,0,0,0,0,0,2.8976,2.8985,2.9004,2.9014,2.9021,2.9074,2.9038,2.9038,2.9051,2.9047,2.9061,2.9061,2.9057,2.91,2.9107,2.9135,2.9084,2.921,2.9214,2.9217,2.9256,2.9263,2.927,0,0,0,0,0,2.8974,2.9014,2.9005,2.9011,2.9044,2.9076,2.908,2.9073,2.9053,2.9073,2.9077,2.9061,2.9128,2.9104,2.9112,2.9142,2.9208,2.9213,2.9217,2.9252,2.9262,2.927,0,0,0,0,0,0,2.9007,2.9015,2.9005,2.9049,2.9062,2.9071,2.9095,2.9083,2.9103,2.9099,2.9091,2.9094,2.9138,2.9143,2.9117,2.9195,2.9165,2.9171,2.9189,2.9198,2.9205,2.9203,2.9086,0,0,0,0,0,2.902,2.9044,2.9049,2.9088,2.9095,2.9095,2.9108,2.9102,2.9115,2.9121,2.9127,2.9141,2.9166,2.9182,2.9205,2.9256,2.926,2.9281,2.9288,2.9294,2.93,2.933,2.934,2.9234,2.9234,2.9234,0,0,2.9046,2.9053,2.9069,2.9095,2.9104,2.9131,2.9099,2.9128,2.9148,2.9125,2.9164,2.917,2.9185,2.9232,2.9253,2.9239,2.933,2.93,2.9304,2.9307,2.9335,2.9345,2.9354,2.9237,2.9237,2.9236,0,0,2.9107,2.9114,2.9149,2.9159,2.9173,2.9173,2.9181,2.9192,2.9195,2.9234,2.9218,2.9243,2.9284,2.9297,2.9309,2.9378,2.9365,2.9386,2.9424,2.9453,2.9462,2.9469,2.9496,2.9505,2.9391,2.9391,2.9391,0,2.9138,2.9176,2.9168,2.9198,2.9212,2.9192,2.9228,2.9238,2.926,2.927,2.9253,2.9307,2.9316,2.9367,2.9384,2.9393,2.9404,2.9384,2.9461,2.9468,2.9475,2.95,2.951,2.9394,2.9394,2.9393,2.9393,0,2.9215,2.9242,2.9268,2.9289,2.9305,2.9338,2.9336,2.9354,2.9347,2.9349,2.9391,2.9401,2.9427,2.9438,2.9431,2.9489,2.9479,2.9462,2.9432,2.9488,2.9512,2.9521,2.9397,2.9396,2.9396,2.9395,0,0,2.9297,2.9315,2.9325,2.9335,2.9351,2.9372,2.9406,2.943,2.9446,2.9462,2.9491,2.9528,2.9513,2.9527,2.9521,2.9547,2.9604,2.9527,2.9527,2.9542,2.967,2.9684,2.9695,2.9595,2.9597,2.9598,2.9669,0,2.936,2.9417,2.9412,2.9466,2.9492,2.9475,2.9505,2.9519,2.9522,2.9546,2.9549,2.9576,2.9553,2.9562,2.9586,2.9592,2.963,2.9586,2.9624,2.9625,2.9621,2.9707,2.9721,2.9787,2.9678,2.968,2.9681,0,2.9441,2.9461,2.9518,2.9532,2.9543,2.9569,2.9592,2.9615,2.9631,2.9632,2.9648,2.9639,2.9675,2.9644,2.9694,2.9665,2.968,2.9685,2.9688,2.9691,2.9657,2.9715,2.9808,2.9818,2.9695,2.9694,2.9693,0,2.9498,2.9538,2.9578,2.9587,2.9604,2.9624,2.9632,2.9646,2.9662,2.9683,2.9694,2.9719,2.9733,2.9753,2.9752,2.9729,2.9803,2.9772,2.9806,2.9807,2.9823,2.9822,2.9922,2.9831,2.9831,2.9831,2.9831,0,2.9569,2.9605,2.9604,2.9629,2.967,2.9664,2.9705,2.9711,2.9724,2.9751,2.9738,2.9764,2.976,2.9787,2.9786,2.9829,2.9835,2.9838,2.9838,2.984,2.984,2.985,2.9846,2.9834,2.9833,2.9833,2.9832,0,2.9639,2.9639,2.9682,2.9695,2.97,2.9729,2.9741,2.9765,2.9768,2.9803,2.981,2.9815,2.9846,2.9847,2.9882,2.9882,2.9934,2.9928,2.9929,2.9928,2.9963,2.996,3.0073,3.0089,2.9987,2.9988,2.9989,0,2.9685,2.9713,2.9729,2.9746,2.9755,2.9783,2.9799,2.9795,2.9814,2.9835,2.9858,2.9887,2.9911,2.9961,2.9968,2.9996,2.9991,3.0029,2.9995,2.9997,2.9993,2.9992,2.9996,3.0036,3.0037,3.0038,3.0038,0,2.9767,2.9767,2.9791,2.9816,2.9836,2.9855,2.9873,2.9888,2.9887,2.9908,2.9939,2.9957,2.9994,3.0024,3.0051,3.0061,3.0051,3.0049,3.0059,3.0062,3.0061,3.0063,2.9948,3.0047,3.0046,3.0045,3.0045,3.0044,2.9827,2.9852,2.9868,2.9896,2.9909,2.9927,2.9951,2.9958,2.9983,3.0013,3.0009,3.0044,3.0062,3.0098,3.011,3.0139,3.0126,3.0139,3.0143,3.0147,3.0151,3.0056,3.0143,3.0143,3.0143,3.0143,3.0143,0,2.991,2.992,2.9946,2.9972,2.9995,2.9982,3.0002,3.0022,3.0053,3.0071,3.0094,3.0132,3.0161,3.0172,3.0201,3.0222,3.0218,3.023,3.0229,3.0232,3.016,3.0149,3.0233,3.0233,3.0233,3.0233,3.0233,3.0233,2.9956,2.9998,2.9999,3.0049,3.0058,3.0093,3.0105,3.0123,3.0137,3.0179,3.0203,3.021,3.0225,3.0256,3.0283,3.0286,3.0298,3.0312,3.0313,3.0246,3.0237,3.0228,3.0218,3.0314,3.0314,3.0382,3.0382,3.0383]},{"header":{"parameterUnit":"m.s-1","parameterCategory":1,"la1":30.2991,"la2":30.254,"lo1":-89.0895,"lo2":-89.0444,"dy":0.0017,"dx":0.0017,"nx":28,"ny":28,"refTime":"2023-07-22T03:00:00:Z","depth":0,"parameterNumber":3,"parameterNumberName":"V-component_of_WINDS"},"data":[0,0,0,0,0,0,0,0,0,0,0,0,0,0,0,0,0,0,0,0,0,0,0,0,0,0,0,0,0,0,0,0,0,0,0,0,0,0,0,0,0,0,0,0,0,0,0,0,0,0,0,0,0,0,0,0,0,0,2.7484,2.7486,0,2.7669,2.7671,2.7673,2.7727,2.7726,2.7725,2.7724,2.7913,2.7919,2.7924,0,0,0,0,0,0,0,0,0,0,0,0,0,2.7176,2.7181,2.7484,2.7486,2.7489,2.7668,2.7671,2.7673,2.7727,2.7726,2.7725,2.7724,2.7911,2.7918,2.7925,0,0,0,0,0,0,0,0,0,0,0,0,0,2.733,2.7183,2.7484,2.7537,2.7544,2.7668,2.7671,2.7674,2.7727,2.7726,2.7724,2.7723,2.7908,2.7917,2.7926,2.801,0,0,2.7953,2.7957,0,0,0,0,0,0,0,0,2.7321,2.7341,2.7527,2.7534,2.7541,2.7673,2.7631,2.7787,2.7728,2.7658,2.7724,2.7722,2.7834,2.7849,2.7887,2.8019,2.8027,2.7954,2.7959,2.7963,2.7966,0,0,0,0,0,0,0,2.731,2.7334,2.7557,2.753,2.7538,2.7551,2.7571,2.7661,2.7752,2.7664,2.7668,2.7689,2.7838,2.7878,2.7892,2.803,2.7954,2.7962,2.7967,2.7971,2.8236,2.8238,0,0,0,0,0,0,2.7291,2.7324,2.7551,2.7563,2.7425,2.7558,2.7581,2.7632,2.7751,2.7768,2.769,2.7691,2.7864,2.7881,2.7899,2.8003,2.7963,2.7971,2.7976,2.8234,2.8236,2.8238,0,0,0,0,0,0,2.7284,2.7311,2.7544,2.7445,2.7475,2.7565,2.7622,2.7637,2.7677,2.7771,2.7787,2.7715,2.7863,2.7886,2.7981,2.801,2.7975,2.7983,2.8232,2.8235,2.8237,2.8212,0,0,0,0,0,0,2.7275,2.7308,2.7341,2.7445,2.748,2.7624,2.7624,2.7641,2.7692,2.7695,2.7799,2.7814,2.7864,2.7967,2.799,2.8021,2.799,2.823,2.8233,2.8236,2.8211,2.8213,2.8216,0,0,0,0,0,2.7264,2.7328,2.7343,2.737,2.7524,2.7626,2.7646,2.7702,2.7695,2.7728,2.7788,2.7811,2.8003,2.7977,2.8002,2.8037,2.8228,2.8232,2.8236,2.821,2.8213,2.8216,0,0,0,0,0,0,2.7226,2.7342,2.7361,2.746,2.7532,2.7634,2.7679,2.7704,2.778,2.7779,2.7845,2.7868,2.7957,2.8007,2.7976,2.8123,2.8116,2.8125,2.8087,2.8091,2.8094,2.8079,2.7998,0,0,0,0,0,2.7229,2.7302,2.74,2.7478,2.7513,2.7589,2.7636,2.7672,2.775,2.7781,2.7848,2.7922,2.7998,2.8048,2.8124,2.8218,2.824,2.8254,2.8257,2.8258,2.8265,2.8316,2.8322,2.8251,2.8251,2.8251,0,0,2.7237,2.7309,2.7352,2.7472,2.7532,2.7605,2.7615,2.7693,2.7747,2.7793,2.7886,2.7937,2.8024,2.8118,2.8162,2.8162,2.829,2.8263,2.8264,2.827,2.832,2.8327,2.8333,2.8253,2.8253,2.8253,0,0,2.7287,2.735,2.7421,2.7481,2.7571,2.7621,2.7638,2.7736,2.7771,2.7866,2.7901,2.7965,2.8097,2.8157,2.8204,2.8273,2.8296,2.8296,2.8309,2.8357,2.8363,2.8368,2.8391,2.8398,2.8303,2.8303,2.8303,0,2.7285,2.7397,2.7454,2.7529,2.758,2.7624,2.7695,2.775,2.7861,2.7894,2.7892,2.8055,2.8117,2.8224,2.824,2.8278,2.8298,2.8285,2.8358,2.8363,2.8369,2.8391,2.84,2.8302,2.8302,2.8302,2.8302,0,2.7388,2.7465,2.7511,2.7615,2.7672,2.7744,2.7811,2.7861,2.7892,2.7941,2.8035,2.811,2.8201,2.8229,2.8261,2.834,2.8336,2.8345,2.8339,2.8374,2.8396,2.8405,2.8301,2.8301,2.8301,2.8301,0,0,2.7422,2.7555,2.7571,2.7618,2.7719,2.7779,2.7852,2.794,2.798,2.8055,2.8116,2.8225,2.8233,2.8286,2.8325,2.8367,2.8413,2.8371,2.8373,2.8374,2.8502,2.8494,2.8503,2.8429,2.8431,2.8433,2.8494,0,2.7484,2.7617,2.7669,2.7777,2.7846,2.7887,2.7951,2.8019,2.8067,2.8132,2.8185,2.826,2.8265,2.8297,2.8341,2.8398,2.844,2.8395,2.8486,2.8488,2.8462,2.8515,2.8508,2.8562,2.8503,2.8505,2.8506,0,2.7575,2.7648,2.7762,2.7852,2.7883,2.7939,2.8022,2.8085,2.8162,2.8194,2.8252,2.8287,2.8363,2.8352,2.8457,2.8425,2.8465,2.8499,2.8502,2.8512,2.8499,2.8525,2.8581,2.8589,2.852,2.8519,2.8518,0,2.7585,2.7712,2.7796,2.7835,2.7943,2.7981,2.8028,2.8104,2.8152,2.8224,2.8256,2.8336,2.838,2.8441,2.8496,2.8483,2.8594,2.8589,2.8621,2.8619,2.8643,2.864,2.8705,2.867,2.867,2.867,2.867,0,2.7648,2.7715,2.7802,2.7853,2.7929,2.7988,2.8061,2.8111,2.8177,2.8238,2.8279,2.8335,2.8404,2.8469,2.8512,2.8591,2.8611,2.8637,2.8647,2.8633,2.8629,2.8659,2.8657,2.8672,2.8672,2.8671,2.8671,0,2.7672,2.7733,2.7827,2.792,2.7945,2.7997,2.8076,2.8127,2.8175,2.8251,2.8273,2.8348,2.8426,2.8486,2.8588,2.8617,2.8699,2.8712,2.8673,2.8678,2.8706,2.8702,2.8791,2.8805,2.8762,2.8762,2.8763,0,2.7708,2.7761,2.7859,2.7902,2.7948,2.8018,2.8067,2.8126,2.8175,2.8265,2.8304,2.8384,2.8452,2.8573,2.8637,2.8713,2.8727,2.8753,2.8739,2.8721,2.8725,2.8721,2.8725,2.8754,2.8754,2.8755,2.8755,0,2.7764,2.7791,2.786,2.7939,2.7996,2.8061,2.8127,2.816,2.823,2.8283,2.8362,2.8414,2.8516,2.8595,2.8677,2.8724,2.8751,2.8758,2.877,2.8755,2.8729,2.8742,2.8676,2.8756,2.8756,2.8756,2.8756,2.8756,2.7794,2.7842,2.7918,2.7992,2.8048,2.8108,2.8159,2.8213,2.828,2.8367,2.8398,2.8479,2.8552,2.8666,2.8713,2.8776,2.8777,2.8794,2.8798,2.8801,2.8798,2.872,2.8791,2.8791,2.8791,2.8792,2.8792,0,2.7851,2.7901,2.7969,2.8059,2.8117,2.8136,2.821,2.8257,2.8327,2.8393,2.8458,2.8547,2.8622,2.8691,2.8769,2.8806,2.882,2.8824,2.8822,2.8832,2.8794,2.8775,2.8812,2.8812,2.8812,2.8812,2.8812,2.8812,2.7887,2.7968,2.8003,2.811,2.816,2.8239,2.8279,2.8333,2.8386,2.8484,2.8546,2.859,2.8657,2.8739,2.8808,2.8826,2.8852,2.8854,2.8874,2.8838,2.8835,2.8832,2.8815,2.8859,2.8859,2.8907,2.8908,2.8908]}]]